User: anonymous   Login
Location: Sandbach
(53.1410°N, 2.3660°W)
Time: 14:08:15
(UTC+00:00)
Language:

ISS - Orbit

View from above orbital plane
View from above orbital plane
View from above satellite
View from above satellite

Ground track
Ground track

The orbit data is extracted from the following two-line orbital elements,

1 25544U 98067A   22021.11265549 -.00060239  00000-0 -10723-2 0  9997
2 25544  51.6423 344.9290 0006791  43.3864  46.4901 15.49530317322374
Epoch (UTC): 21 January 2022 02:42:13
Eccentricity: 0.0006791
inclination: 51.6423°
perigee height: 413 km
apogee height: 423 km
right ascension of ascending node: 344.9290°
argument of perigee: 43.3864°
revolutions per day: 15.49530317
mean anomaly at epoch: 46.4901°
orbit number at epoch: 32237

The dashed part of the orbit path shows where the satellite is in the earth's shadow,  

DLR